This is the latest recevied weather packets stored in our database for station/object OK1TOM-6. If no packets are shown the sender has not sent any weather packets the latest 10 day(s).
| Time | Temp. | Humidity | Pressure | Rain* | Wind** | Luminosity | Snow |
|---|---|---|---|---|---|---|---|
| 1777668931 | 8.33° C | 68% | 1029 hPa | 0 mm | - | - | - |
| 1777668327 | 8.33° C | 67% | 1029.1 hPa | 0 mm | - | - | - |
| 1777667724 | 8.89° C | 67% | 1029.2 hPa | 0 mm | - | - | - |
| 1777667120 | 8.89° C | 66% | 1029.1 hPa | 0 mm | - | - | - |
| 1777666517 | 8.33° C | 67% | 1029.2 hPa | 0 mm | - | - | - |
| 1777665974 | 8.89° C | 67% | 1029.2 hPa | 0 mm | - | - | - |
| 1777665370 | 8.89° C | 67% | 1029.1 hPa | 0 mm | - | - | - |
| 1777664767 | 9.44° C | 66% | 1029.2 hPa | 0 mm | - | - | - |
| 1777664164 | 9.44° C | 66% | 1029.1 hPa | 0 mm | - | - | - |
| 1777663560 | 9.44° C | 66% | 1029 hPa | 0 mm | - | - | - |
| 1777662957 | 9.44° C | 65% | 1029 hPa | 0 mm | - | - | - |
| 1777662353 | 9.44° C | 65% | 1029 hPa | 0 mm | - | - | - |
| 1777661750 | 10° C | 64% | 1029 hPa | 0 mm | - | - | - |
| 1777661146 | 10° C | 64% | 1028.9 hPa | 0 mm | - | - | - |
| 1777660543 | 10.56° C | 63% | 1028.9 hPa | 0 mm | - | - | - |
| 1777659939 | 11.11° C | 61% | 1028.9 hPa | 0 mm | - | - | - |
| 1777659336 | 12.22° C | 59% | 1028.9 hPa | 0 mm | - | - | - |
| 1777658733 | 12.78° C | 54% | 1029 hPa | 0 mm | - | - | - |
| 1777658129 | 13.89° C | 53% | 1028.9 hPa | 0 mm | - | - | - |
| 1777657526 | 14.44° C | 52% | 1029 hPa | 0 mm | - | - | - |
| 1777656923 | 15° C | 49% | 1028.9 hPa | 0 mm | - | - | - |
| 1777656319 | 15.56° C | 45% | 1029 hPa | 0 mm | - | - | - |
| 1777655716 | 16.11° C | 42% | 1028.9 hPa | 0 mm | - | - | - |
| 1777655173 | 16.11° C | 41% | 1028.9 hPa | 0 mm | - | - | - |
| 1777654569 | 16.67° C | 41% | 1028.9 hPa | 0 mm | - | - | - |
* Rain latest hour (hover to see other rain measurements)
** Current wind speed in m/s (hover to see current wind gust speed)